Terminal Aerodrome Forecast
Issued by NWS

Home | Current Version | Previous Version | Text Only | Print | Product List | Glossary On
Versions: 1 2 3 4 5 6 7 8 9 10 11 12 13 14 15 16 17 18 19 20 21 22 23 24 25 26 27 28 29 30 31 32 33
000
FTPQ31 PGUM 070521
TAFGUM
TAF

TAF
PGRO 070521Z 0706/0806 12009KT P6SM VCSH FEW025 SCT050
      TEMPO 0706/0709 14011G18KT 5SM SHRA SCT018 BKN030=

USA.gov is the U.S. government's official web portal to all federal, state and local government web resources and services.